Weather History for Ainsworth, NE

Change the Weather History Date:

Saturday, May 26, 2012

  Actual Average Record
Temperature  
Mean Temperature 67 °F -  
Max Temperature 80 °F 69 °F 89 °F (2006)
Min Temperature 55 °F 47 °F 37 °F (2001)
Cooling Degree Days 2    
Growing Degree Days 17 (Base 50)    
Moisture  
Dew Point 60 °F    
Average Humidity 87    
Maximum Humidity 100    
Minimum Humidity 45    
Precipitation  
Precipitation 0.06 in - - ()
Sea Level Pressure  
Sea Level Pressure 29.77 in    
Wind  
Wind Speed 11 mph (East)    
Max Wind Speed 21 mph    
Max Gust Speed 28 mph    
Visibility 5 miles    
Events Rain    
Averages and records for this station are not official NWS values.
T = Trace of Precipitation, MM = Missing Value Source: NWS Daily Summary

Daily Weather History Graph

Daily Weather History Graph

Search for Another Location

Airport:

Trip Planner

Search our weather history database for the weather conditions in past years. The results will help you decide how hot, cold, wet, or windy it might be!

Date:

Astronomy

May. 26, 2012 Rise Set
Actual Time 6:08 AM CDT 9:06 PM CDT
Civil Twilight 5:34 AM CDT 9:40 PM CDT
Nautical Twilight 4:51 AM CDT 10:23 PM CDT
Astronomical Twilight 4:01 AM CDT 11:13 PM CDT
Moon 11:14 AM CDT (5/26) 12:39 AM CDT (5/26)
Length of Visible Light 16h 05m
Length of Day
14h 58m
Waxing Crescent, 28% of the Moon is Illuminated
May 26
Waxing Crescent
May 28
First Quarter
Jun 4
Full
Jun 11
Last Quarter
Jun 19
New

Hourly Weather History & Observations

Time (CDT) Temp. Heat Index Dew Point Humidity Pressure Visibility Wind Dir Wind Speed Gust Speed Precip Events Conditions
12:15 AM 55.4 °F - 52.2 °F 89% 29.95 in 10.0 mi East 10.4 mph - N/A   Overcast
12:35 AM 55.4 °F - 52.7 °F 91% 29.94 in 10.0 mi East 10.4 mph - N/A   Overcast
12:55 AM 55.4 °F - 53.2 °F 92% 29.93 in 10.0 mi East 11.5 mph - N/A   Overcast
1:15 AM 55.4 °F - 53.8 °F 94% 29.93 in 10.0 mi East 11.5 mph - N/A   Overcast
1:35 AM 55.6 °F - 54.5 °F 96% 29.92 in 7.0 mi East 12.7 mph - N/A   Overcast
1:55 AM 55.4 °F - 54.7 °F 97% 29.91 in 2.5 mi East 11.5 mph - N/A   Overcast
2:15 AM 55.4 °F - 55.2 °F 99% 29.90 in 3.0 mi East 12.7 mph 17.3 mph N/A   Overcast
2:35 AM 55.4 °F - 55.4 °F 100% 29.88 in 4.0 mi East 13.8 mph - N/A   Overcast
2:55 AM 55.4 °F - 55.4 °F 100% 29.84 in 4.0 mi East 17.3 mph - N/A   Overcast
3:15 AM 55.6 °F - 55.4 °F 99% 29.83 in 5.0 mi East 16.1 mph 21.9 mph N/A   Overcast
3:35 AM 55.6 °F - 55.4 °F 99% 29.83 in 4.0 mi East 15.0 mph 19.6 mph N/A   Overcast
3:55 AM 55.6 °F - 55.4 °F 99% 29.83 in 2.5 mi East 13.8 mph 20.7 mph N/A Rain Light Rain
4:15 AM 55.6 °F - 55.6 °F 100% 29.84 in 1.8 mi East 11.5 mph - N/A Rain Rain
4:35 AM 55.6 °F - 55.6 °F 100% 29.83 in 1.5 mi East 10.4 mph - N/A   Heavy Drizzle
4:55 AM 55.4 °F - 55.4 °F 100% 29.83 in 1.5 mi East 8.1 mph - 0.01 in   Heavy Drizzle
5:15 AM 55.4 °F - 55.4 °F 100% 29.82 in 1.2 mi East 6.9 mph - 0.01 in   Drizzle
5:35 AM 55.4 °F - 55.4 °F 100% 29.83 in 1.2 mi East 4.6 mph - 0.01 in   Drizzle
5:55 AM 55.6 °F - 55.6 °F 100% 29.84 in 1.2 mi NE 6.9 mph - 0.01 in   Drizzle
6:15 AM 55.6 °F - 55.6 °F 100% 29.85 in 1.2 mi NE 8.1 mph - 0.01 in   Drizzle
6:35 AM 55.6 °F - 55.6 °F 100% 29.85 in 1.5 mi NE 10.4 mph - 0.02 in   Drizzle
6:55 AM 55.8 °F - 55.8 °F 100% 29.85 in 1.2 mi NE 10.4 mph - 0.03 in   Drizzle
7:15 AM 55.6 °F - 55.6 °F 100% 29.85 in 1.8 mi NE 12.7 mph - 0.01 in Rain Rain
7:35 AM 55.6 °F - 55.6 °F 100% 29.85 in 1.5 mi ENE 10.4 mph - 0.01 in Rain Light Rain
7:55 AM 55.8 °F - 55.8 °F 100% 29.84 in 1.8 mi ENE 10.4 mph 16.1 mph 0.01 in   Light Drizzle
8:15 AM 55.9 °F - 55.9 °F 100% 29.84 in 2.0 mi East 12.7 mph 16.1 mph N/A   Overcast
8:35 AM 55.9 °F - 55.9 °F 100% 29.83 in 1.5 mi East 11.5 mph - N/A   Overcast
8:55 AM 56.1 °F - 56.1 °F 100% 29.84 in 1.5 mi East 9.2 mph - N/A Rain Light Rain
9:15 AM 56.3 °F - 56.3 °F 100% 29.83 in 1.0 mi East 10.4 mph - N/A Rain Light Rain
9:35 AM 56.3 °F - 56.3 °F 100% 29.83 in 1.0 mi East 13.8 mph - N/A Rain Light Rain
9:55 AM 56.8 °F - 56.8 °F 100% 29.83 in 1.0 mi East 12.7 mph - N/A Rain Light Rain
10:15 AM 57.4 °F - 57.4 °F 100% 29.83 in 1.0 mi East 13.8 mph - N/A   Light Drizzle
10:35 AM 58.3 °F - 58.3 °F 100% 29.83 in 1.0 mi ESE 13.8 mph - N/A   Overcast
10:55 AM 59.0 °F - 59.0 °F 100% 29.82 in 1.8 mi ESE 12.7 mph 16.1 mph N/A   Overcast
11:15 AM 60.1 °F - 60.1 °F 100% 29.82 in 3.0 mi ESE 10.4 mph - N/A   Overcast
11:35 AM 61.3 °F - 61.3 °F 100% 29.81 in 4.0 mi SE 11.5 mph - N/A   Overcast
11:55 AM 62.8 °F - 62.1 °F 97% 29.81 in 5.0 mi SE 11.5 mph - N/A   Overcast
12:15 PM 64.2 °F - 62.8 °F 95% 29.81 in 5.0 mi SSE 11.5 mph - N/A   Overcast
12:35 PM 65.3 °F - 62.4 °F 90% 29.80 in 7.0 mi SE 13.8 mph - N/A   Overcast
12:55 PM 67.1 °F - 62.8 °F 86% 29.80 in 7.0 mi SSE 10.4 mph - N/A   Overcast
1:15 PM 68.4 °F - 62.8 °F 82% 29.80 in 7.0 mi SSE 11.5 mph - N/A   Mostly Cloudy
1:35 PM 70.0 °F - 62.8 °F 78% 29.80 in 10.0 mi SSE 11.5 mph - N/A   Mostly Cloudy
1:55 PM 70.2 °F - 63.1 °F 78% 29.80 in 10.0 mi South 9.2 mph - N/A   Mostly Cloudy
2:15 PM 72.0 °F - 62.8 °F 73% 29.79 in 10.0 mi South 4.6 mph - N/A   Scattered Clouds
2:35 PM 71.6 °F - 62.2 °F 72% 29.79 in 7.0 mi SSE 9.2 mph - N/A   Mostly Cloudy
2:55 PM 72.7 °F - 62.1 °F 69% 29.78 in 10.0 mi SSE 8.1 mph - N/A   Overcast
3:15 PM 73.2 °F - 62.2 °F 68% 29.78 in 10.0 mi South 5.8 mph - N/A   Mostly Cloudy
3:35 PM 73.2 °F - 61.5 °F 67% 29.77 in 10.0 mi SSE 4.6 mph - N/A   Scattered Clouds
3:55 PM 74.5 °F - 61.0 °F 63% 29.76 in 10.0 mi ESE 5.8 mph - N/A   Clear
4:15 PM 75.2 °F - 61.0 °F 61% 29.75 in 10.0 mi Calm Calm - N/A   Clear
4:35 PM 76.5 °F - 61.7 °F 60% 29.73 in 10.0 mi ENE 4.6 mph - N/A   Clear
4:55 PM 77.4 °F - 62.4 °F 60% 29.72 in 10.0 mi ESE 4.6 mph - N/A   Clear
5:15 PM 78.1 °F - 63.3 °F 60% 29.71 in 4.0 mi East 5.8 mph - N/A   Haze
5:35 PM 79.5 °F - 64.4 °F 60% 29.69 in 10.0 mi NE 10.4 mph - N/A   Clear
5:55 PM 79.7 °F - 64.6 °F 60% 29.69 in 2.0 mi NE 10.4 mph - N/A   Haze
6:15 PM 79.3 °F - 64.6 °F 60% 29.67 in 10.0 mi NNE 11.5 mph - N/A   Clear
6:35 PM 73.6 °F - 64.8 °F 74% 29.66 in 10.0 mi North 13.8 mph 19.6 mph N/A   Clear
6:55 PM 71.6 °F - 64.6 °F 78% 29.66 in 10.0 mi NNE 13.8 mph 17.3 mph N/A   Clear
7:15 PM 70.3 °F - 64.4 °F 81% 29.65 in 7.0 mi NNE 16.1 mph - N/A   Scattered Clouds
7:35 PM 70.5 °F - 64.8 °F 82% 29.64 in 7.0 mi NNE 11.5 mph 21.9 mph N/A   Clear
7:55 PM 69.3 °F - 64.4 °F 84% 29.63 in 5.0 mi NE 15.0 mph 21.9 mph N/A   Haze
8:15 PM 68.0 °F - 64.9 °F 90% 29.62 in 5.0 mi NNE 12.7 mph - N/A   Clear
8:35 PM 67.3 °F - 65.3 °F 93% 29.62 in 4.0 mi NNE 9.2 mph - N/A   Clear
8:55 PM 67.1 °F - 65.8 °F 96% 29.61 in 4.0 mi NE 9.2 mph - N/A   Clear
9:15 PM 67.5 °F - 66.7 °F 98% 29.60 in 3.0 mi NE 9.2 mph - N/A   Mist
9:35 PM 67.1 °F - 66.7 °F 99% 29.59 in 4.0 mi NE 8.1 mph - N/A   Scattered Clouds
9:55 PM 66.9 °F - 66.4 °F 98% 29.60 in 4.0 mi North 5.8 mph - N/A   Clear
10:15 PM 66.4 °F - 66.2 °F 99% 29.60 in 3.0 mi North 3.5 mph - N/A   Clear
10:35 PM 66.4 °F - 65.8 °F 98% 29.60 in 4.0 mi NNE 3.5 mph - N/A   Clear
11:15 PM 76.1 °F - 57.6 °F 53% 29.58 in 10.0 mi SSE 17.3 mph - N/A   Clear
11:35 PM 79.7 °F - 56.5 °F 45% 29.58 in 10.0 mi SSE 20.7 mph 27.6 mph N/A   Clear
11:55 PM 80.2 °F 80.5 °F 57.0 °F 45% 29.57 in 10.0 mi SSE 19.6 mph 27.6 mph N/A   Clear